Lancaster, CA

1:11 AM PDT on August 30, 2016 (GMT -0700)
Gen Fox

Weather History for KWJF - March, 2014

Change the Weather History Date:

Sunday, March 30, 2014

  Actual Average Record
Temperature  
Mean Temperature 53 °F 55 °F  
Max Temperature 61 °F 70 °F 88 °F (1966)
Min Temperature 44 °F 41 °F 26 °F (1975)
Degree Days  
Heating Degree Days 12    
Month to date heating degree days 274  
Since 1 July heating degree days 2511  
Cooling Degree Days 0    
Month to date cooling degree days 0  
Year to date cooling degree days 6  
Growing Degree Days 2 (Base 50)    
Moisture  
Dew Point 34 °F    
Average Humidity 54    
Maximum Humidity 77    
Minimum Humidity 31    
Precipitation  
Precipitation T in 0.03 in 0.48 in (1978)
Month to date precipitation 0.22 1.12  
Year to date precipitation 2.09 4.40  
Since 1 July precipitation 3.70  
Snow  
Snow 0.00 in - T in (1977)
Month to date snowfall 0.0  
Since 1 July snowfall 0.0  
Snow Depth 0.00 in    
Sea Level Pressure  
Sea Level Pressure 30.01 in    
Wind  
Wind Speed 19 mph (West)    
Max Wind Speed 30 mph    
Max Gust Speed 36 mph    
Visibility 10 miles    
Events      
T = Trace of Precipitation, MM = Missing Value Source: NWS Daily Summary

Daily Weather History Graph

Daily Weather History Graph

Search for Another Location

Airport or City:

Trip Planner

Search our weather history database for the weather conditions in past years. The results will help you decide how hot, cold, wet, or windy it might be!

Date:

Astronomy

Mar. 30, 2014 Rise Set
Actual Time 6:42 AM PDT 7:12 PM PDT
Civil Twilight 6:17 AM PDT 7:37 PM PDT
Nautical Twilight 5:47 AM PDT 8:07 PM PDT
Astronomical Twilight 5:17 AM PDT 8:38 PM PDT
Moon 6:31 AM PDT 7:29 PM PDT
Length of Visible Light 13h 20m
Length of Day
12h 30m
New Moon, 0% of the Moon is Illuminated
Mar 30
New Moon
Apr 7
First Quarter
Apr 15
Full
Apr 22
Last Quarter
Apr 28
New

Hourly Weather History & Observations

Time (PDT) Temp. Windchill Dew Point Humidity Pressure Visibility Wind Dir Wind Speed Gust Speed Precip Events Conditions
12:56 AM 54.0 °F - 39.0 °F 57% 29.92 in 10.0 mi WSW 19.6 mph 28.8 mph N/A   Clear
1:56 AM 51.1 °F - 43.0 °F 74% 29.93 in 10.0 mi WSW 17.3 mph - N/A   Clear
2:56 AM 51.1 °F - 45.0 °F 80% 29.92 in 10.0 mi SW 16.1 mph 23.0 mph N/A   Scattered Clouds
3:56 AM 50.0 °F - 39.0 °F 66% 29.93 in 10.0 mi West 23.0 mph - N/A   Overcast
4:56 AM 48.0 °F - 39.9 °F 74% 29.92 in 10.0 mi WSW 17.3 mph 26.5 mph 0.00 in   Overcast
5:56 AM 46.0 °F 37.8 °F 36.0 °F 68% 29.96 in 10.0 mi West 23.0 mph - N/A   Clear
6:56 AM 44.1 °F 35.9 °F 36.0 °F 73% 30.00 in 10.0 mi West 19.6 mph - N/A   Clear
7:56 AM 46.0 °F 38.3 °F 36.0 °F 68% 30.02 in 10.0 mi West 20.7 mph - N/A   Clear
8:56 AM 48.9 °F - 36.0 °F 61% 30.04 in 10.0 mi WSW 13.8 mph - N/A   Clear
9:56 AM 52.0 °F - 35.1 °F 53% 30.05 in 10.0 mi West 23.0 mph 29.9 mph N/A   Clear
10:56 AM 55.0 °F - 34.0 °F 45% 30.06 in 10.0 mi West 23.0 mph 33.4 mph N/A   Clear
11:56 AM 55.9 °F - 33.1 °F 42% 30.08 in 10.0 mi West 24.2 mph 31.1 mph N/A   Clear
12:56 PM 55.9 °F - 32.0 °F 40% 30.07 in 10.0 mi West 21.9 mph 31.1 mph N/A   Clear
1:56 PM 59.0 °F - 30.0 °F 33% 30.06 in 10.0 mi WNW 19.6 mph 26.5 mph N/A   Clear
2:56 PM 59.0 °F - 28.9 °F 32% 30.03 in 10.0 mi WNW 12.7 mph 23.0 mph N/A   Clear
3:56 PM 59.0 °F - 28.0 °F 31% 30.02 in 10.0 mi WNW 17.3 mph 24.2 mph N/A   Clear
4:56 PM 59.0 °F - 30.0 °F 33% 30.00 in 10.0 mi West 26.5 mph 33.4 mph N/A   Clear
5:56 PM 55.0 °F - 30.0 °F 38% 30.01 in 10.0 mi West 23.0 mph - N/A   Clear
6:56 PM 52.0 °F - 32.0 °F 47% 30.03 in 10.0 mi West 24.2 mph - N/A   Clear
7:56 PM 50.0 °F - 33.1 °F 52% 30.02 in 10.0 mi West 19.6 mph 26.5 mph N/A   Clear
8:56 PM 48.0 °F - 33.1 °F 56% 30.05 in 10.0 mi West 17.3 mph 21.9 mph N/A   Clear
9:56 PM 48.0 °F - 32.0 °F 54% 30.04 in 10.0 mi West 18.4 mph 26.5 mph N/A   Clear
10:56 PM 48.0 °F - 33.1 °F 56% 30.04 in 10.0 mi West 17.3 mph - N/A   Clear
11:56 PM 46.9 °F - 33.1 °F 59% 30.04 in 10.0 mi West 15.0 mph - N/A   Clear